User: anonymous
Location: Gipe Farm
(40.9466°N, 95.5370°W)
Time: 15:15:41
(UTC-05:00)
Language:

Cosmos 2082 Rocket - Orbit

View from above orbital plane
View from above orbital plane
View from above satellite
View from above satellite

Ground track
Ground track

The orbit data is extracted from the following two-line orbital elements,

1 20625U 90046B   14265.46177542 -.00000026  00000-0  11040-4 0  8244
2 20625 070.9994 085.1516 0014275 194.1260 190.2776 14.14540987256607
Epoch (UTC): 22 September 2014 11:04:57
Eccentricity: 0.0014275
inclination: 70.9994°
perigee height: 833 km
apogee height: 854 km
right ascension of ascending node: 85.1516°
argument of perigee: 194.1260°
revolutions per day: 14.14540987
mean anomaly at epoch: 190.2776°
orbit number at epoch: 25660

The dashed part of the orbit path shows where the satellite is in the earth's shadow,  

DLR